| time (UTC) | temp C | wind direction | speed KPH | gust KPH | rain 1hr cm | rain 24hr cm | rain mn cm | humidity % | barometer mb |
| 20260506201520 | 26 | 119 | 4.8 | 14.5 | 0.00 | 0.00 | 0.00 | 40 | 1016.4 |
| 20260506201010 | 26 | 260 | 3.2 | 12.9 | 0.00 | 0.00 | 0.00 | 41 | 1016.4 |
| 20260506200509 | 26 | 108 | 3.2 | 12.9 | 0.00 | 0.00 | 0.00 | 43 | 1016.5 |
| 20260506200027 | 26 | 193 | 8.0 | 12.9 | 0.00 | 0.00 | 0.00 | 43 | 1016.6 |
| 20260506195508 | 26 | 267 | 4.8 | 17.7 | 0.00 | 0.00 | 0.00 | 41 | 1016.5 |
| 20260506195011 | 26 | 221 | 6.4 | 17.7 | 0.00 | 0.00 | 0.00 | 40 | 1016.5 |
| 20260506194526 | 26 | 243 | 3.2 | 11.3 | 0.00 | 0.00 | 0.00 | 39 | 1016.6 |
| 20260506194008 | 26 | 278 | 4.8 | 14.5 | 0.00 | 0.00 | 0.00 | 40 | 1016.6 |
| 20260506193512 | 26 | 211 | 4.8 | 14.5 | 0.00 | 0.00 | 0.00 | 38 | 1016.6 |
| 20260506193013 | 26 | 226 | 3.2 | 11.3 | 0.00 | 0.00 | 0.00 | 40 | 1016.7 |
| 20260506192507 | 25 | 255 | 3.2 | 11.3 | 0.00 | 0.00 | 0.00 | 41 | 1016.7 |
| 20260506192009 | 25 | 290 | 3.2 | 12.9 | 0.00 | 0.00 | 0.00 | 42 | 1016.8 |
| 20260506191518 | 25 | 221 | 6.4 | 14.5 | 0.00 | 0.00 | 0.00 | 42 | 1016.8 |
| 20260506191006 | 25 | 248 | 4.8 | 14.5 | 0.00 | 0.00 | 0.00 | 41 | 1016.8 |
| 20260506190507 | 25 | 327 | 4.8 | 17.7 | 0.00 | 0.00 | 0.00 | 39 | 1016.9 |
| 20260506190021 | 25 | 277 | 4.8 | 17.7 | 0.00 | 0.00 | 0.00 | 40 | 1016.9 |
| 20260506185507 | 25 | 266 | 4.8 | 12.9 | 0.00 | 0.00 | 0.00 | 41 | 1016.9 |
| 20260506185009 | 25 | 296 | 6.4 | 12.9 | 0.00 | 0.00 | 0.00 | 43 | 1017.1 |
| 20260506184529 | 24 | 304 | 3.2 | 9.7 | 0.00 | 0.00 | 0.00 | 42 | 1017.1 |
| 20260506184013 | 24 | 262 | 3.2 | 9.7 | 0.00 | 0.00 | 0.00 | 44 | 1017.2 |
| 20260506183510 | 24 | 304 | 1.6 | 14.5 | 0.00 | 0.00 | 0.00 | 42 | 1017.2 |
| 20260506183026 | 24 | 254 | 4.8 | 14.5 | 0.00 | 0.00 | 0.00 | 44 | 1017.2 |
| 20260506182507 | 23 | 315 | 3.2 | 9.7 | 0.00 | 0.00 | 0.00 | 41 | 1017.3 |
| 20260506182007 | 23 | 196 | 1.6 | 11.3 | 0.00 | 0.00 | 0.00 | 43 | 1017.3 |
| 20260506181515 | 23 | 5 | 0.0 | 11.3 | 0.00 | 0.00 | 0.00 | 43 | 1017.3 |
| 20260506181007 | 23 | 254 | 1.6 | 16.1 | 0.00 | 0.00 | 0.00 | 46 | 1017.4 |
| 20260506180509 | 23 | 209 | 3.2 | 16.1 | 0.00 | 0.00 | 0.00 | 44 | 1017.5 |
| 20260506180005 | 23 | 86 | 1.6 | 8.0 | 0.00 | 0.00 | 0.00 | 43 | 1017.5 |
| 20260506175501 | 22 | 221 | 1.6 | 8.0 | 0.00 | 0.00 | 0.00 | 49 | 1017.5 |
| 20260506175002 | 22 | 271 | 4.8 | 8.0 | 0.00 | 0.00 | 0.00 | 49 | 1017.6 |
| 20260506174504 | 22 | 168 | 1.6 | 11.3 | 0.00 | 0.00 | 0.00 | 46 | 1017.6 |
| 20260506174007 | 22 | 330 | 1.6 | 11.3 | 0.00 | 0.00 | 0.00 | 46 | 1017.6 |
| 20260506173504 | 22 | 201 | 3.2 | 11.3 | 0.00 | 0.00 | 0.00 | 48 | 1017.9 |
| 20260506173013 | 22 | 234 | 4.8 | 11.3 | 0.00 | 0.00 | 0.00 | 48 | 1017.8 |
| 20260506172503 | 22 | 257 | 1.6 | 6.4 | 0.00 | 0.00 | 0.00 | 48 | 1017.8 |
| 20260506172006 | 21 | 179 | 3.2 | 6.4 | 0.00 | 0.00 | 0.00 | 49 | 1017.8 |
| 20260506171515 | 21 | 292 | 3.2 | 6.4 | 0.00 | 0.00 | 0.00 | 49 | 1017.8 |
| 20260506171004 | 21 | 264 | 1.6 | 6.4 | 0.00 | 0.00 | 0.00 | 51 | 1017.7 |
| 20260506170508 | 20 | 256 | 3.2 | 6.4 | 0.00 | 0.00 | 0.00 | 51 | 1017.7 |
| 20260506170018 | 20 | 203 | 0.0 | 6.4 | 0.00 | 0.00 | 0.00 | 51 | 1017.8 |
| 20260506165508 | 20 | 238 | 1.6 | 9.7 | 0.00 | 0.00 | 0.00 | 51 | 1017.7 |
| 20260506165003 | 20 | 270 | 0.0 | 9.7 | 0.00 | 0.00 | 0.00 | 52 | 1017.7 |
| 20260506164504 | 20 | 263 | 1.6 | 11.3 | 0.00 | 0.00 | 0.00 | 54 | 1017.7 |
| 20260506164002 | 19 | 250 | 3.2 | 11.3 | 0.00 | 0.00 | 0.00 | 53 | 1017.7 |
| 20260506163506 | 19 | 245 | 3.2 | 8.0 | 0.00 | 0.00 | 0.00 | 52 | 1017.7 |
| 20260506163008 | 18 | 193 | 4.8 | 8.0 | 0.00 | 0.00 | 0.00 | 54 | 1017.7 |
| 20260506162503 | 18 | 215 | 1.6 | 4.8 | 0.00 | 0.00 | 0.00 | 58 | 1017.8 |
| 20260506162009 | 18 | 216 | 1.6 | 4.8 | 0.00 | 0.00 | 0.00 | 60 | 1017.9 |
| 20260506161511 | 17 | 219 | 1.6 | 4.8 | 0.00 | 0.00 | 0.00 | 60 | 1017.9 |
| 20260506161010 | 17 | 242 | 0.0 | 3.2 | 0.00 | 0.00 | 0.00 | 60 | 1018.0 |
| 20260506160510 | 17 | 270 | 0.0 | 3.2 | 0.00 | 0.00 | 0.00 | 62 | 1017.8 |
| 20260506160016 | 16 | 209 | 0.0 | 3.2 | 0.00 | 0.00 | 0.00 | 61 | 1017.9 |
| 20260506155506 | 16 | 237 | 0.0 | 3.2 | 0.00 | 0.00 | 0.00 | 66 | 1018.0 |
| 20260506155009 | 15 | 232 | 0.0 | 3.2 | 0.00 | 0.00 | 0.00 | 63 | 1017.9 |
| 20260506154524 | 15 | 221 | 0.0 | 3.2 | 0.00 | 0.00 | 0.00 | 67 | 1018.0 |
| 20260506154018 | 14 | 202 | 0.0 | 4.8 | 0.00 | 0.00 | 0.00 | 68 | 1018.1 |
| 20260506153502 | 14 | 129 | 0.0 | 4.8 | 0.00 | 0.00 | 0.00 | 70 | 1018.0 |
| 20260506153004 | 13 | 214 | 0.0 | 3.2 | 0.00 | 0.00 | 0.00 | 74 | 1018.2 |
| 20260506152504 | 12 | 225 | 1.6 | 3.2 | 0.00 | 0.00 | 0.00 | 75 | 1018.1 |
| 20260506152006 | 12 | 78 | 0.0 | 3.2 | 0.00 | 0.00 | 0.00 | 76 | 1018.3 |
| 20260506151509 | 11 | 69 | 0.0 | 3.2 | 0.00 | 0.00 | 0.00 | 80 | 1018.2 |
| 20260506151003 | 11 | 289 | 0.0 | 3.2 | 0.00 | 0.00 | 0.00 | 83 | 1018.2 |
| 20260506150507 | 10 | 281 | 0.0 | 3.2 | 0.00 | 0.00 | 0.00 | 84 | 1018.2 |
| 20260506150016 | 10 | 281 | 0.0 | 3.2 | 0.00 | 0.00 | 0.00 | 86 | 1018.2 |
| 20260506145511 | 9 | 281 | 0.0 | 3.2 | 0.00 | 0.00 | 0.00 | 88 | 1018.3 |
| 20260506145009 | 8 | 288 | 0.0 | 3.2 | 0.00 | 0.00 | 0.00 | 89 | 1018.4 |
| 20260506144522 | 8 | 300 | 0.0 | 3.2 | 0.00 | 0.00 | 0.00 | 89 | 1018.3 |
| 20260506144006 | 8 | 300 | 0.0 | 3.2 | 0.00 | 0.00 | 0.00 | 89 | 1018.5 |
| 20260506143508 | 7 | 293 | 0.0 | 3.2 | 0.00 | 0.00 | 0.00 | 89 | 1018.3 |
| 20260506143026 | 7 | 293 | 0.0 | 1.6 | 0.00 | 0.00 | 0.00 | 89 | 1018.2 |
| 20260506142513 | 7 | 323 | 0.0 | 3.2 | 0.00 | 0.00 | 0.00 | 89 | 1018.4 |
| 20260506142007 | 7 | 323 | 0.0 | 3.2 | 0.00 | 0.00 | 0.00 | 89 | 1018.3 |
| 20260506141508 | 6 | 323 | 0.0 | 3.2 | 0.00 | 0.00 | 0.00 | 88 | 1018.3 |
| 20260506141006 | 6 | 323 | 0.0 | 3.2 | 0.00 | 0.00 | 0.00 | 88 | 1018.3 |
| 20260506140506 | 6 | 323 | 0.0 | 3.2 | 0.00 | 0.00 | 0.00 | 87 | 1018.2 |
| 20260506140014 | 6 | 312 | 0.0 | 3.2 | 0.00 | 0.00 | 0.00 | 87 | 1018.3 |
| 20260506135508 | 6 | 312 | 0.0 | 1.6 | 0.00 | 0.00 | 0.00 | 87 | 1018.2 |
| 20260506135008 | 6 | 312 | 0.0 | 1.6 | 0.00 | 0.00 | 0.00 | 87 | 1017.9 |
| 20260506134520 | 6 | 312 | 0.0 | 3.2 | 0.00 | 0.00 | 0.00 | 87 | 1018.0 |
| 20260506134008 | 6 | 312 | 0.0 | 3.2 | 0.00 | 0.00 | 0.00 | 86 | 1018.0 |
| 20260506133506 | 6 | 312 | 0.0 | 0.0 | 0.00 | 0.00 | 0.00 | 86 | 1018.1 |
| 20260506133022 | 6 | 312 | 0.0 | 0.0 | 0.00 | 0.00 | 0.00 | 86 | 1017.9 |
| 20260506132513 | 6 | 319 | 0.0 | 0.0 | 0.00 | 0.00 | 0.00 | 86 | 1017.9 |
| 20260506132007 | 6 | 319 | 0.0 | 3.2 | 0.00 | 0.00 | 0.00 | 86 | 1017.9 |
| 20260506131531 | 6 | 319 | 0.0 | 3.2 | 0.00 | 0.00 | 0.00 | 86 | 1017.9 |
| 20260506131011 | 6 | 319 | 0.0 | 0.0 | 0.00 | 0.00 | 0.00 | 86 | 1017.9 |
| 20260506130506 | 6 | 314 | 0.0 | 0.0 | 0.00 | 0.00 | 0.00 | 86 | 1017.9 |
| 20260506130012 | 6 | 314 | 0.0 | 0.0 | 0.00 | 0.00 | 0.00 | 86 | 1017.6 |
| 20260506125506 | 6 | 314 | 0.0 | 0.0 | 0.00 | 0.00 | 0.00 | 86 | 1017.8 |
| 20260506125009 | 6 | 314 | 0.0 | 0.0 | 0.00 | 0.00 | 0.00 | 86 | 1017.6 |
| 20260506124516 | 6 | 314 | 0.0 | 0.0 | 0.00 | 0.00 | 0.00 | 86 | 1017.5 |
| 20260506124007 | 6 | 314 | 0.0 | 0.0 | 0.00 | 0.00 | 0.00 | 86 | 1017.4 |
| 20260506123507 | 6 | 314 | 0.0 | 0.0 | 0.00 | 0.00 | 0.00 | 86 | 1017.6 |
| 20260506123020 | 6 | 314 | 0.0 | 0.0 | 0.00 | 0.00 | 0.00 | 86 | 1017.5 |
| 20260506122507 | 6 | 314 | 0.0 | 0.0 | 0.00 | 0.00 | 0.00 | 86 | 1017.5 |
| 20260506122010 | 6 | 314 | 0.0 | 0.0 | 0.00 | 0.00 | 0.00 | 86 | 1017.4 |
| 20260506121531 | 6 | 314 | 0.0 | 3.2 | 0.00 | 0.00 | 0.00 | 86 | 1017.4 |
| 20260506121011 | 6 | 314 | 0.0 | 3.2 | 0.00 | 0.00 | 0.00 | 86 | 1017.3 |
| 20260506120508 | 6 | 314 | 0.0 | 3.2 | 0.00 | 0.00 | 0.00 | 86 | 1017.5 |
| 20260506120014 | 6 | 320 | 0.0 | 3.2 | 0.00 | 0.00 | 0.00 | 86 | 1017.4 |
| 20260506115511 | 6 | 350 | 0.0 | 0.0 | 0.00 | 0.00 | 0.00 | 86 | 1017.3 |
| 20260506115007 | 6 | 350 | 0.0 | 3.2 | 0.00 | 0.00 | 0.00 | 86 | 1017.2 |
| 20260506114516 | 6 | 350 | 0.0 | 3.2 | 0.00 | 0.00 | 0.00 | 86 | 1017.2 |
| 20260506114007 | 6 | 350 | 0.0 | 1.6 | 0.00 | 0.00 | 0.00 | 86 | 1017.3 |
| 20260506113504 | 6 | 350 | 0.0 | 0.0 | 0.00 | 0.00 | 0.00 | 86 | 1017.2 |
| 20260506113005 | 6 | 350 | 0.0 | 0.0 | 0.00 | 0.00 | 0.00 | 86 | 1017.3 |
| 20260506112503 | 7 | 350 | 0.0 | 3.2 | 0.00 | 0.00 | 0.00 | 86 | 1017.2 |
| 20260506112003 | 7 | 350 | 0.0 | 3.2 | 0.00 | 0.00 | 0.00 | 86 | 1017.2 |
| 20260506111504 | 6 | 350 | 0.0 | 1.6 | 0.00 | 0.00 | 0.00 | 85 | 1017.2 |
| 20260506111004 | 6 | 350 | 0.0 | 3.2 | 0.00 | 0.00 | 0.00 | 85 | 1017.3 |
| 20260506110504 | 6 | 350 | 0.0 | 3.2 | 0.00 | 0.00 | 0.00 | 84 | 1017.2 |
| 20260506110006 | 6 | 350 | 0.0 | 3.2 | 0.00 | 0.00 | 0.00 | 84 | 1017.1 |
| 20260506105504 | 6 | 350 | 0.0 | 3.2 | 0.00 | 0.00 | 0.00 | 84 | 1017.3 |
| 20260506105005 | 6 | 18 | 0.0 | 3.2 | 0.00 | 0.00 | 0.00 | 84 | 1017.2 |
| 20260506104510 | 7 | 18 | 0.0 | 0.0 | 0.00 | 0.00 | 0.00 | 84 | 1017.1 |
| 20260506104006 | 7 | 18 | 0.0 | 0.0 | 0.00 | 0.00 | 0.00 | 83 | 1017.2 |
| 20260506103509 | 7 | 18 | 0.0 | 1.6 | 0.00 | 0.00 | 0.00 | 83 | 1017.3 |
| 20260506103016 | 7 | 18 | 0.0 | 1.6 | 0.00 | 0.00 | 0.00 | 83 | 1017.4 |
| 20260506102507 | 7 | 18 | 0.0 | 0.0 | 0.00 | 0.00 | 0.00 | 83 | 1017.3 |
| 20260506102008 | 7 | 18 | 0.0 | 1.6 | 0.00 | 0.00 | 0.00 | 83 | 1017.4 |
| 20260506101506 | 7 | 18 | 0.0 | 1.6 | 0.00 | 0.00 | 0.00 | 83 | 1017.4 |
| 20260506101003 | 7 | 18 | 0.0 | 0.0 | 0.00 | 0.00 | 0.00 | 83 | 1017.4 |
| 20260506100502 | 7 | 18 | 0.0 | 0.0 | 0.00 | 0.00 | 0.00 | 83 | 1017.4 |
| 20260506100023 | 7 | 18 | 0.0 | 0.0 | 0.00 | 0.00 | 0.00 | 83 | 1017.4 |
| 20260506095506 | 7 | 18 | 0.0 | 0.0 | 0.00 | 0.00 | 0.00 | 83 | 1017.6 |
| 20260506095004 | 7 | 18 | 0.0 | 3.2 | 0.00 | 0.00 | 0.00 | 83 | 1017.5 |
| 20260506094520 | 7 | 18 | 0.0 | 3.2 | 0.00 | 0.00 | 0.00 | 83 | 1017.5 |
| 20260506094008 | 8 | 18 | 0.0 | 0.0 | 0.00 | 0.00 | 0.00 | 84 | 1017.5 |
| 20260506093506 | 8 | 18 | 0.0 | 0.0 | 0.00 | 0.00 | 0.00 | 84 | 1017.4 |
| 20260506093015 | 8 | 18 | 0.0 | 0.0 | 0.00 | 0.00 | 0.00 | 84 | 1017.5 |
| 20260506092506 | 8 | 18 | 0.0 | 0.0 | 0.00 | 0.00 | 0.00 | 84 | 1017.5 |
| 20260506092013 | 8 | 18 | 0.0 | 0.0 | 0.00 | 0.00 | 0.00 | 84 | 1017.5 |
| 20260506091520 | 8 | 18 | 0.0 | 0.0 | 0.00 | 0.00 | 0.00 | 83 | 1017.4 |
| 20260506091007 | 8 | 18 | 0.0 | 0.0 | 0.00 | 0.00 | 0.00 | 79 | 1017.5 |
| 20260506090506 | 8 | 18 | 0.0 | 0.0 | 0.00 | 0.00 | 0.00 | 79 | 1017.5 |
| 20260506090005 | 8 | 18 | 0.0 | 3.2 | 0.00 | 0.00 | 0.00 | 79 | 1017.5 |
| 20260506085503 | 8 | 18 | 0.0 | 3.2 | 0.00 | 0.00 | 0.00 | 79 | 1017.4 |
| 20260506085004 | 8 | 18 | 0.0 | 3.2 | 0.00 | 0.00 | 0.00 | 78 | 1017.4 |
| 20260506084507 | 8 | 18 | 0.0 | 3.2 | 0.00 | 0.00 | 0.00 | 78 | 1017.4 |
| 20260506084004 | 8 | 18 | 0.0 | 3.2 | 0.00 | 0.00 | 0.00 | 78 | 1017.5 |
| 20260506083505 | 8 | 18 | 0.0 | 1.6 | 0.00 | 0.00 | 0.00 | 78 | 1017.4 |
| 20260506083011 | 8 | 18 | 0.0 | 1.6 | 0.00 | 0.00 | 0.00 | 77 | 1017.5 |
| 20260506082508 | 8 | 18 | 0.0 | 1.6 | 0.00 | 0.00 | 0.00 | 77 | 1017.5 |
| 20260506082006 | 8 | 18 | 0.0 | 1.6 | 0.00 | 0.00 | 0.00 | 77 | 1017.5 |
| 20260506081517 | 8 | 18 | 0.0 | 0.0 | 0.00 | 0.00 | 0.00 | 76 | 1017.6 |
| 20260506081006 | 8 | 18 | 0.0 | 0.0 | 0.00 | 0.00 | 0.00 | 76 | 1017.6 |
| 20260506080506 | 8 | 18 | 0.0 | 0.0 | 0.00 | 0.00 | 0.00 | 76 | 1017.6 |
| 20260506073504 | 9 | 18 | 0.0 | 0.0 | 0.00 | 0.00 | 0.00 | 75 | 1017.4 |
| 20260506073016 | 10 | 18 | 0.0 | 0.0 | 0.00 | 0.00 | 0.00 | 75 | 1017.5 |
| 20260506072504 | 10 | 18 | 0.0 | 0.0 | 0.00 | 0.00 | 0.00 | 74 | 1017.4 |
| 20260506072008 | 10 | 18 | 0.0 | 0.0 | 0.00 | 0.00 | 0.00 | 74 | 1017.3 |
| 20260506071517 | 10 | 18 | 0.0 | 0.0 | 0.00 | 0.00 | 0.00 | 74 | 1017.2 |
| 20260506071010 | 10 | 18 | 0.0 | 0.0 | 0.00 | 0.00 | 0.00 | 73 | 1017.1 |
| 20260506070506 | 10 | 18 | 0.0 | 0.0 | 0.00 | 0.00 | 0.00 | 73 | 1017.0 |
| 20260506062505 | 11 | 18 | 0.0 | 0.0 | 0.00 | 0.00 | 0.00 | 71 | 1016.5 |
| 20260506062009 | 11 | 18 | 0.0 | 0.0 | 0.00 | 0.00 | 0.00 | 71 | 1016.5 |
| 20260506061512 | 11 | 18 | 0.0 | 1.6 | 0.00 | 0.00 | 0.00 | 71 | 1016.5 |
| 20260506061006 | 11 | 18 | 0.0 | 1.6 | 0.00 | 0.00 | 0.00 | 71 | 1016.5 |
| 20260506060506 | 11 | 18 | 0.0 | 3.2 | 0.00 | 0.00 | 0.00 | 71 | 1016.5 |
| 20260506051005 | 12 | 5 | 0.0 | 3.2 | 0.00 | 0.00 | 0.00 | 68 | 1016.1 |
| 20260506050506 | 12 | 9 | 0.0 | 4.8 | 0.00 | 0.00 | 0.00 | 68 | 1016.1 |
| 20260506045007 | 12 | 62 | 0.0 | 3.2 | 0.00 | 0.00 | 0.00 | 66 | 1015.8 |
| 20260506044549 | 12 | 95 | 0.0 | 0.0 | 0.00 | 0.00 | 0.00 | 65 | 1015.8 |
| 20260506044005 | 12 | 95 | 0.0 | 0.0 | 0.00 | 0.00 | 0.00 | 64 | 1015.8 |
| 20260506043510 | 12 | 95 | 0.0 | 0.0 | 0.00 | 0.00 | 0.00 | 64 | 1015.7 |
| 20260506043026 | 13 | 95 | 0.0 | 0.0 | 0.00 | 0.00 | 0.00 | 64 | 1015.7 |
| 20260506042509 | 13 | 95 | 0.0 | 3.2 | 0.00 | 0.00 | 0.00 | 63 | 1015.6 |
| 20260506042012 | 13 | 95 | 0.0 | 3.2 | 0.00 | 0.00 | 0.00 | 63 | 1015.5 |
| 20260506041527 | 13 | 94 | 0.0 | 3.2 | 0.00 | 0.00 | 0.00 | 63 | 1015.4 |
| 20260506041012 | 13 | 115 | 0.0 | 3.2 | 0.00 | 0.00 | 0.00 | 62 | 1015.2 |
| 20260506040510 | 13 | 115 | 0.0 | 1.6 | 0.00 | 0.00 | 0.00 | 62 | 1015.1 |
| 20260506040013 | 13 | 115 | 0.0 | 3.2 | 0.00 | 0.00 | 0.00 | 62 | 1015.2 |
| 20260506035506 | 13 | 115 | 0.0 | 3.2 | 0.00 | 0.00 | 0.00 | 61 | 1015.0 |
| 20260506035007 | 13 | 115 | 0.0 | 3.2 | 0.00 | 0.00 | 0.00 | 61 | 1015.0 |
| 20260506034538 | 14 | 190 | 0.0 | 3.2 | 0.00 | 0.00 | 0.00 | 61 | 1014.9 |
| 20260506034003 | 14 | 182 | 0.0 | 3.2 | 0.00 | 0.00 | 0.00 | 60 | 1014.8 |
| 20260506033503 | 14 | 195 | 0.0 | 3.2 | 0.00 | 0.00 | 0.00 | 60 | 1014.7 |
| 20260506033007 | 14 | 195 | 0.0 | 3.2 | 0.00 | 0.00 | 0.00 | 59 | 1014.8 |
| 20260506032503 | 14 | 184 | 0.0 | 3.2 | 0.00 | 0.00 | 0.00 | 59 | 1014.7 |
| 20260506032003 | 15 | 198 | 0.0 | 3.2 | 0.00 | 0.00 | 0.00 | 59 | 1014.6 |
| 20260506031504 | 15 | 198 | 1.6 | 6.4 | 0.00 | 0.00 | 0.00 | 59 | 1014.5 |
| 20260506031004 | 15 | 222 | 1.6 | 8.0 | 0.00 | 0.00 | 0.00 | 58 | 1014.5 |
| 20260506030504 | 15 | 207 | 1.6 | 8.0 | 0.00 | 0.00 | 0.00 | 58 | 1014.5 |
| 20260506030004 | 15 | 211 | 3.2 | 6.4 | 0.00 | 0.00 | 0.00 | 58 | 1014.3 |
| 20260506025503 | 15 | 213 | 1.6 | 6.4 | 0.00 | 0.00 | 0.00 | 58 | 1014.4 |
| 20260506025004 | 15 | 239 | 3.2 | 8.0 | 0.00 | 0.00 | 0.00 | 57 | 1014.3 |
| 20260506024504 | 15 | 269 | 1.6 | 9.7 | 0.00 | 0.00 | 0.00 | 57 | 1014.2 |
| 20260506024006 | 15 | 214 | 3.2 | 9.7 | 0.00 | 0.00 | 0.00 | 57 | 1014.1 |
| 20260506023506 | 16 | 249 | 4.8 | 9.7 | 0.00 | 0.00 | 0.00 | 56 | 1014.0 |
| 20260506023003 | 16 | 217 | 1.6 | 9.7 | 0.00 | 0.00 | 0.00 | 55 | 1014.1 |
| 20260506022503 | 16 | 192 | 1.6 | 9.7 | 0.00 | 0.00 | 0.00 | 55 | 1014.0 |
| 20260506022003 | 16 | 207 | 4.8 | 9.7 | 0.00 | 0.00 | 0.00 | 55 | 1014.0 |
| 20260506021506 | 16 | 234 | 1.6 | 6.4 | 0.00 | 0.00 | 0.00 | 54 | 1014.0 |
| 20260506021004 | 16 | 198 | 3.2 | 8.0 | 0.00 | 0.00 | 0.00 | 54 | 1014.0 |
| 20260506020504 | 16 | 226 | 3.2 | 8.0 | 0.00 | 0.00 | 0.00 | 54 | 1013.8 |
| 20260506020006 | 16 | 248 | 1.6 | 8.0 | 0.00 | 0.00 | 0.00 | 53 | 1013.7 |
| 20260506015504 | 16 | 128 | 1.6 | 8.0 | 0.00 | 0.00 | 0.00 | 53 | 1013.7 |
| 20260506015006 | 16 | 204 | 1.6 | 6.4 | 0.00 | 0.00 | 0.00 | 53 | 1013.6 |
| 20260506014507 | 16 | 212 | 1.6 | 9.7 | 0.00 | 0.00 | 0.00 | 53 | 1013.6 |
| 20260506014004 | 17 | 221 | 1.6 | 9.7 | 0.00 | 0.00 | 0.00 | 53 | 1013.5 |
| 20260506013505 | 17 | 133 | 1.6 | 9.7 | 0.00 | 0.00 | 0.00 | 52 | 1013.6 |
| 20260506013006 | 17 | 255 | 4.8 | 9.7 | 0.00 | 0.00 | 0.00 | 52 | 1013.5 |
| 20260506012503 | 17 | 250 | 3.2 | 9.7 | 0.00 | 0.00 | 0.00 | 51 | 1013.5 |
| 20260506012003 | 17 | 227 | 1.6 | 9.7 | 0.00 | 0.00 | 0.00 | 51 | 1013.6 |
| 20260506011507 | 17 | 188 | 3.2 | 11.3 | 0.00 | 0.00 | 0.00 | 51 | 1013.5 |
| 20260506011005 | 17 | 242 | 4.8 | 11.3 | 0.00 | 0.00 | 0.00 | 51 | 1013.5 |
| 20260506010503 | 17 | 180 | 4.8 | 9.7 | 0.00 | 0.00 | 0.00 | 51 | 1013.5 |
| 20260506010007 | 17 | 248 | 3.2 | 9.7 | 0.00 | 0.00 | 0.00 | 51 | 1013.5 |
| 20260506005503 | 17 | 221 | 3.2 | 14.5 | 0.00 | 0.00 | 0.00 | 51 | 1013.4 |
| 20260506005002 | 17 | 221 | 1.6 | 14.5 | 0.00 | 0.00 | 0.00 | 51 | 1013.4 |
| 20260506004516 | 18 | 233 | 4.8 | 11.3 | 0.00 | 0.00 | 0.00 | 52 | 1013.4 |
| 20260506004004 | 18 | 237 | 3.2 | 16.1 | 0.00 | 0.00 | 0.00 | 51 | 1013.3 |
| 20260506003504 | 18 | 202 | 4.8 | 16.1 | 0.00 | 0.00 | 0.00 | 52 | 1013.2 |
| 20260506003009 | 18 | 32 | 4.8 | 16.1 | 0.00 | 0.00 | 0.00 | 51 | 1013.3 |
| 20260506002508 | 18 | 212 | 9.7 | 16.1 | 0.00 | 0.00 | 0.00 | 52 | 1013.3 |
| 20260506002003 | 18 | 188 | 8.0 | 16.1 | 0.00 | 0.00 | 0.00 | 52 | 1013.2 |
| 20260506001508 | 17 | 246 | 4.8 | 16.1 | 0.00 | 0.00 | 0.00 | 53 | 1013.2 |
| 20260506001004 | 17 | 199 | 3.2 | 11.3 | 0.00 | 0.00 | 0.00 | 52 | 1013.1 |
| 20260506000504 | 17 | 215 | 4.8 | 11.3 | 0.00 | 0.00 | 0.00 | 52 | 1013.1 |
| 20260506000005 | 17 | 86 | 1.6 | 11.3 | 0.00 | 0.00 | 0.00 | 53 | 1013.0 |
| 20260505235504 | 17 | 218 | 1.6 | 12.9 | 0.00 | 0.00 | 0.00 | 51 | 1013.1 |
| 20260505235006 | 17 | 269 | 1.6 | 16.1 | 0.00 | 0.00 | 0.00 | 51 | 1013.0 |
| 20260505234510 | 17 | 235 | 3.2 | 16.1 | 0.00 | 0.00 | 0.00 | 51 | 1013.1 |
| 20260505234004 | 17 | 203 | 1.6 | 14.5 | 0.00 | 0.00 | 0.00 | 51 | 1013.0 |
| 20260505233506 | 17 | 99 | 4.8 | 14.5 | 0.00 | 0.00 | 0.00 | 52 | 1013.1 |
| 20260505233010 | 17 | 175 | 3.2 | 11.3 | 0.00 | 0.00 | 0.00 | 55 | 1013.1 |
| 20260505232505 | 17 | 200 | 4.8 | 11.3 | 0.00 | 0.00 | 0.00 | 54 | 1013.2 |
| 20260505232004 | 17 | 144 | 3.2 | 12.9 | 0.00 | 0.00 | 0.00 | 54 | 1013.1 |
| 20260505231513 | 17 | 217 | 4.8 | 12.9 | 0.00 | 0.00 | 0.00 | 54 | 1013.2 |
| 20260505231003 | 17 | 186 | 6.4 | 11.3 | 0.00 | 0.00 | 0.00 | 55 | 1013.2 |
| 20260505230503 | 17 | 169 | 3.2 | 11.3 | 0.00 | 0.00 | 0.00 | 55 | 1013.4 |
| 20260505230012 | 17 | 182 | 4.8 | 11.3 | 0.00 | 0.00 | 0.00 | 54 | 1013.3 |
| 20260505225504 | 17 | 215 | 3.2 | 12.9 | 0.00 | 0.00 | 0.00 | 54 | 1013.2 |
| 20260505225004 | 17 | 192 | 4.8 | 16.1 | 0.00 | 0.00 | 0.00 | 54 | 1013.1 |
| 20260505224510 | 17 | 234 | 4.8 | 16.1 | 0.00 | 0.00 | 0.00 | 53 | 1013.2 |
| 20260505224006 | 17 | 222 | 3.2 | 12.9 | 0.00 | 0.00 | 0.00 | 53 | 1013.2 |
| 20260505223506 | 17 | 254 | 3.2 | 12.9 | 0.00 | 0.00 | 0.00 | 53 | 1013.2 |
| 20260505223010 | 17 | 165 | 4.8 | 11.3 | 0.00 | 0.00 | 0.00 | 52 | 1013.3 |
| 20260505222508 | 17 | 209 | 1.6 | 9.7 | 0.00 | 0.00 | 0.00 | 52 | 1013.4 |
| 20260505222006 | 17 | 242 | 3.2 | 9.7 | 0.00 | 0.00 | 0.00 | 52 | 1013.2 |
| 20260505221515 | 17 | 194 | 6.4 | 9.7 | 0.00 | 0.00 | 0.00 | 52 | 1013.2 |
| 20260505221006 | 17 | 165 | 3.2 | 9.7 | 0.00 | 0.00 | 0.00 | 52 | 1013.2 |
| 20260505220508 | 17 | 139 | 3.2 | 12.9 | 0.00 | 0.00 | 0.00 | 51 | 1013.3 |
| 20260505220022 | 17 | 221 | 1.6 | 12.9 | 0.00 | 0.00 | 0.00 | 50 | 1013.4 |
| 20260505215506 | 18 | 160 | 4.8 | 14.5 | 0.00 | 0.00 | 0.00 | 50 | 1013.3 |
| 20260505215006 | 18 | 225 | 4.8 | 14.5 | 0.00 | 0.00 | 0.00 | 50 | 1013.3 |
| 20260505214516 | 18 | 210 | 3.2 | 11.3 | 0.00 | 0.00 | 0.00 | 50 | 1013.2 |
| 20260505214007 | 19 | 250 | 4.8 | 11.3 | 0.00 | 0.00 | 0.00 | 50 | 1013.3 |
| 20260505213508 | 19 | 246 | 1.6 | 11.3 | 0.00 | 0.00 | 0.00 | 50 | 1013.3 |
| 20260505213012 | 19 | 260 | 4.8 | 12.9 | 0.00 | 0.00 | 0.00 | 50 | 1013.4 |
| 20260505212512 | 19 | 240 | 4.8 | 12.9 | 0.00 | 0.00 | 0.00 | 1013.4 | |
| 20260505212012 | 19 | 204 | 4.8 | 16.1 | 0.00 | 0.00 | 0.00 | 49 | 1013.4 |
| 20260505211514 | 19 | 302 | 6.4 | 16.1 | 0.00 | 0.00 | 0.00 | 49 | 1013.4 |
| 20260505211006 | 19 | 209 | 6.4 | 12.9 | 0.00 | 0.00 | 0.00 | 49 | 1013.4 |
| 20260505210506 | 19 | 207 | 4.8 | 12.9 | 0.00 | 0.00 | 0.00 | 50 | 1013.4 |
| 20260505210015 | 20 | 231 | 9.7 | 14.5 | 0.00 | 0.00 | 0.00 | 52 | 1013.5 |
| 20260505205508 | 20 | 198 | 6.4 | 17.7 | 0.00 | 0.00 | 0.00 | 50 | 1013.5 |
| 20260505205007 | 20 | 260 | 8.0 | 17.7 | 0.00 | 0.00 | 0.00 | 49 | 1013.5 |
| 20260505204513 | 20 | 261 | 8.0 | 14.5 | 0.00 | 0.00 | 0.00 | 48 | 1013.5 |
| 20260505204011 | 20 | 263 | 4.8 | 14.5 | 0.00 | 0.00 | 0.00 | 50 | 1013.5 |
| 20260505203510 | 20 | 217 | 4.8 | 9.7 | 0.00 | 0.00 | 0.00 | 1013.5 | |
| 20260505203014 | 19 | 246 | 4.8 | 12.9 | 0.00 | 0.00 | 0.00 | 50 | 1013.6 |
| 20260505202505 | 19 | 238 | 4.8 | 12.9 | 0.00 | 0.00 | 0.00 | 50 | 1013.6 |
| 20260505202009 | 18 | 254 | 4.8 | 17.7 | 0.00 | 0.00 | 0.00 | 51 | 1013.5 |